TimeCST,TemperatureF,Dew PointF,Humidity,Sea Level PressureIn,VisibilityMPH,Wind Direction,Wind SpeedMPH,Gust SpeedMPH,PrecipitationIn,Events,Conditions,WindDirDegrees,DateUTC
12:54 AM,35.1,30.0,82,30.11,10.0,SW,9.2,-,N/A,,Partly Cloudy,220,2013-01-09 06:54:00
1:54 AM,37.0,28.9,73,30.13,10.0,WSW,6.9,-,N/A,,Clear,250,2013-01-09 07:54:00
2:54 AM,41.0,30.9,67,30.17,10.0,West,12.7,-,N/A,,Clear,270,2013-01-09 08:54:00
3:54 AM,37.9,30.0,73,30.19,10.0,West,8.1,-,N/A,,Clear,260,2013-01-09 09:54:00
4:54 AM,37.0,30.0,76,30.22,10.0,West,10.4,-,N/A,,Clear,260,2013-01-09 10:54:00
5:54 AM,36.0,30.0,79,30.24,10.0,WSW,6.9,-,N/A,,Clear,240,2013-01-09 11:54:00
6:54 AM,34.0,28.9,82,30.28,10.0,WSW,4.6,-,N/A,,Clear,250,2013-01-09 12:54:00
7:54 AM,30.9,28.0,89,30.32,10.0,WSW,4.6,-,N/A,,Clear,250,2013-01-09 13:54:00
8:54 AM,37.0,30.9,79,30.34,10.0,WSW,5.8,-,N/A,,Clear,250,2013-01-09 14:54:00
9:54 AM,41.0,30.9,67,30.36,10.0,West,9.2,-,N/A,,Clear,280,2013-01-09 15:54:00
10:54 AM,43.0,33.1,68,30.39,10.0,WNW,10.4,-,N/A,,Clear,290,2013-01-09 16:54:00
11:54 AM,46.0,32.0,58,30.38,10.0,WNW,12.7,18.4,N/A,,Clear,300,2013-01-09 17:54:00
12:54 PM,48.0,30.9,52,30.37,10.0,NNW,10.4,-,N/A,,Clear,330,2013-01-09 18:54:00
1:54 PM,48.9,27.0,43,30.38,10.0,WNW,13.8,23.0,N/A,,Clear,300,2013-01-09 19:54:00
2:54 PM,50.0,27.0,41,30.41,10.0,NW,12.7,-,N/A,,Clear,320,2013-01-09 20:54:00
3:54 PM,48.9,24.1,38,30.43,10.0,NW,8.1,17.3,N/A,,Clear,320,2013-01-09 21:54:00
4:54 PM,45.0,26.1,48,30.44,10.0,NNW,4.6,-,N/A,,Clear,330,2013-01-09 22:54:00
5:54 PM,37.0,26.1,65,30.47,10.0,SW,3.5,-,N/A,,Clear,220,2013-01-09 23:54:00
6:54 PM,37.0,27.0,67,30.49,10.0,Calm,Calm,-,N/A,,Clear,0,2013-01-10 00:54:00
7:54 PM,34.0,26.1,73,30.51,10.0,ENE,3.5,-,N/A,,Clear,70,2013-01-10 01:54:00
8:54 PM,34.0,27.0,75,30.50,10.0,NNE,3.5,-,N/A,,Clear,30,2013-01-10 02:54:00
9:54 PM,30.0,24.1,79,30.51,10.0,Calm,Calm,-,N/A,,Clear,0,2013-01-10 03:54:00
10:54 PM,28.9,24.1,82,30.53,10.0,Calm,Calm,-,N/A,,Clear,0,2013-01-10 04:54:00
11:54 PM,28.9,25.0,85,30.51,10.0,Calm,Calm,-,N/A,,Clear,0,2013-01-10 05:54:00